Content
SEND FEEDBACK

Daily
Averages
Monthly
Summary
United States of America

ELIZABETH, NEW JERSEY


Home > North America > United States > New Jersey
Elevation: 1 foot     Latitude: 40 42N     Longitude: 074 10W

WEATHER
 
SELECT A DAY
Number of Records: 193,165;   Date Range: 1/1/95 - 11/21/14
 
SHARE

PRINT THIS DATA

[ ← Previous Day ]
WEATHER ALMANAC - JULY 16, 2013
[ Next Day → ]
[ °C ]   °F
Weather ElementAverageHighLow
Temperature87.4 °F93.9 °F (2:51 pm)80.1 °F (4:51 am)
Dewpoint65 °F69.1 °F (1:51 am)62.1 °F (3:51 pm)
Humidity48.3 %67 % (4:51 am)35 % (3:51 pm)
Barometer30.16 in30.20 in (8:51 am)30.13 in (4:51 pm)
Wind Speed10.2 mph15 mph (8:51 am)
Wind Gust23 mph (11:51 am)
Weather ElementAverage
Visibility10 mi
Wind DirectionSSW (188.7 °)

Weather ElementTotal
Precipitation---
Cooling Degree Days22 (Base 65)
Growing Degree Days37 (Base 50)
Averaged from 23 records on July 16, 2013
WEATHER CONDITIONS BREAKOUT
WIND DIRECTION BREAKOUT
WEATHER BY HOUR - JULY 16, 2013
[ °C ]   °F
Local TimeTemperatureDewpointHumidityBarometerVisibilityWind DirectionWind SpeedGust SpeedPrecipitationEventsConditions
1:51 AM84.0 °F69.1 °F61 %30.16 in10.0 miNW (320°)6.9 mphMostly Cloudy
2:51 AM82.9 °F68.0 °F60 %30.15 in10.0 miNNW (330°)9.2 mphMostly Cloudy
3:51 AM81.0 °F68.0 °F65 %30.15 in10.0 miNNW (340°)10.4 mphMostly Cloudy
4:51 AM80.1 °F68.0 °F67 %30.16 in10.0 miNNW (340°)5.8 mphMostly Cloudy
5:51 AM80.1 °F66.0 °F62 %30.18 in10.0 miNNW (340°)11.5 mphScattered Clouds
6:51 AM80.1 °F66.0 °F62 %30.19 in10.0 miNorth (10°)10.4 mphScattered Clouds
7:51 AM82.0 °F66.0 °F58 %30.19 in10.0 miNorth (360°)13.8 mphScattered Clouds
8:51 AM84.9 °F66.0 °F53 %30.20 in10.0 miNorth (10°)15.0 mphScattered Clouds
9:51 AM88.0 °F66.0 °F48 %30.19 in10.0 miNorth (350°)12.7 mphScattered Clouds
10:51 AM90.0 °F64.9 °F43 %30.19 in10.0 miNorth (360°)9.2 mphScattered Clouds
11:51 AM91.9 °F64.9 °F41 %30.18 in10.0 miNNW (330°)13.8 mph23.0 mphPartly Cloudy
12:51 PM93.0 °F63.0 °F37 %30.17 in10.0 miNorth (360°)12.7 mphPartly Cloudy
1:51 PM93.0 °F64.0 °F38 %30.16 in10.0 miNNW (340°)10.4 mph17.3 mphScattered Clouds
2:51 PM93.9 °F63.0 °F36 %30.15 in10.0 miNorth (360°)10.4 mph21.9 mphScattered Clouds
3:51 PM93.9 °F62.1 °F35 %30.14 in10.0 miNNE (20°)15.0 mph20.7 mphScattered Clouds
4:51 PM93.9 °F63.0 °F36 %30.13 in10.0 miNNE (20°)11.5 mphScattered Clouds
5:51 PM90.0 °F64.0 °F42 %30.13 in10.0 miNNE (20°)11.5 mphScattered Clouds
6:51 PM91.0 °F64.0 °F41 %30.13 in10.0 miNNE (20°)10.4 mphPartly Cloudy
7:51 PM89.1 °F63.0 °F42 %30.14 in10.0 miNNE (30°)11.5 mphPartly Cloudy
8:51 PM87.1 °F64.0 °F46 %30.14 in10.0 miNNE (30°)9.2 mphScattered Clouds
9:51 PM84.9 °F64.0 °F49 %30.16 in10.0 miNNE (20°)5.8 mphPartly Cloudy
10:51 PM87.1 °F63.0 °F44 %30.17 in10.0 miNNE (30°)3.5 mphMostly Cloudy
11:51 PM88.0 °F64.9 °F46 %30.16 in10.0 miVariable3.5 mphMostly Cloudy
Hourly data recorded from KEWR, located miles away from Elizabeth, New Jersey







STORIES FROM OUR PARTNERS